| time (UTC) | temp F | wind direction | speed MPH | gust MPH | rain 1hr in | rain 24hr in | rain mn in | humidity % | barometer mb |
| 20260506014830 | 44 | 127 | 0.0 | 0.0 | 0.00 | 0.00 | 0.00 | 63 | 1007.8 |
| 20260506014327 | 45 | 126 | 0.0 | 0.0 | 0.00 | 0.00 | 0.00 | 64 | 1007.7 |
| 20260506013824 | 45 | 126 | 0.0 | 0.0 | 0.00 | 0.00 | 0.00 | 62 | 1007.7 |
| 20260506013321 | 45 | 130 | 0.0 | 0.0 | 0.00 | 0.00 | 0.00 | 61 | 1007.6 |
| 20260506012817 | 46 | 134 | 0.0 | 0.0 | 0.00 | 0.00 | 0.00 | 63 | 1007.4 |
| 20260506012315 | 46 | 130 | 0.0 | 0.0 | 0.00 | 0.00 | 0.00 | 60 | 1007.6 |
| 20260506011812 | 46 | 133 | 0.0 | 0.0 | 0.00 | 0.00 | 0.00 | 58 | 1007.3 |
| 20260506011308 | 46 | 136 | 0.0 | 0.0 | 0.00 | 0.00 | 0.00 | 56 | 1007.3 |
| 20260506010806 | 46 | 134 | 0.0 | 0.0 | 0.00 | 0.00 | 0.00 | 56 | 1007.4 |
| 20260506010304 | 47 | 135 | 0.0 | 0.0 | 0.00 | 0.00 | 0.00 | 56 | 1007.4 |
| 20260506005800 | 47 | 132 | 0.0 | 0.0 | 0.00 | 0.00 | 0.00 | 54 | 1007.4 |
| 20260506005257 | 48 | 132 | 0.0 | 0.0 | 0.00 | 0.00 | 0.00 | 54 | 1007.5 |
| 20260506004753 | 48 | 132 | 0.0 | 0.0 | 0.00 | 0.00 | 0.00 | 53 | 1007.4 |
| 20260506004251 | 48 | 133 | 0.0 | 0.0 | 0.00 | 0.00 | 0.00 | 52 | 1007.4 |
| 20260506003747 | 49 | 148 | 0.0 | 0.0 | 0.00 | 0.00 | 0.00 | 51 | 1007.2 |
| 20260506003243 | 49 | 148 | 0.0 | 0.0 | 0.00 | 0.00 | 0.00 | 51 | 1007.2 |
| 20260506002740 | 50 | 142 | 0.0 | 0.0 | 0.00 | 0.00 | 0.00 | 51 | 1007.3 |
| 20260506002236 | 50 | 132 | 0.0 | 0.0 | 0.00 | 0.00 | 0.00 | 50 | 1007.3 |
| 20260506001731 | 50 | 144 | 0.0 | 0.0 | 0.00 | 0.00 | 0.00 | 51 | 1007.3 |
| 20260506001229 | 50 | 136 | 0.0 | 0.0 | 0.00 | 0.00 | 0.00 | 51 | 1007.4 |
| 20260506000726 | 50 | 148 | 1.0 | 1.0 | 0.00 | 0.00 | 0.00 | 48 | 1007.3 |
| 20260506000226 | 51 | 139 | 0.0 | 0.0 | 0.00 | 0.00 | 0.00 | 49 | 1007.4 |
| 20260505235721 | 51 | 140 | 0.0 | 0.0 | 0.00 | 0.00 | 0.00 | 48 | 1007.4 |
| 20260505235218 | 51 | 175 | 1.0 | 1.0 | 0.00 | 0.00 | 0.00 | 47 | 1007.2 |
| 20260505234715 | 51 | 211 | 2.0 | 2.0 | 0.00 | 0.00 | 0.00 | 47 | 1007.4 |
| 20260505234212 | 51 | 186 | 2.0 | 2.0 | 0.00 | 0.00 | 0.00 | 46 | 1007.3 |
| 20260505233709 | 51 | 206 | 1.0 | 1.0 | 0.00 | 0.00 | 0.00 | 47 | 1007.3 |
| 20260505233207 | 51 | 134 | 0.0 | 1.0 | 0.00 | 0.00 | 0.00 | 47 | 1007.2 |
| 20260505232704 | 51 | 131 | 0.0 | 0.0 | 0.00 | 0.00 | 0.00 | 48 | 1007.4 |
| 20260505232201 | 52 | 222 | 2.0 | 2.0 | 0.00 | 0.00 | 0.00 | 47 | 1007.2 |
| 20260505231658 | 52 | 243 | 1.0 | 2.0 | 0.00 | 0.00 | 0.00 | 47 | 1007.1 |
| 20260505231157 | 52 | 130 | 0.0 | 1.0 | 0.00 | 0.00 | 0.00 | 49 | 1007.1 |
| 20260505230655 | 52 | 147 | 0.0 | 0.0 | 0.00 | 0.00 | 0.00 | 46 | 1007.1 |
| 20260505230151 | 52 | 133 | 0.0 | 0.0 | 0.00 | 0.00 | 0.00 | 49 | 1007.3 |
| 20260505225647 | 52 | 184 | 2.0 | 3.0 | 0.00 | 0.00 | 0.00 | 46 | 1007.4 |
| 20260505225143 | 52 | 194 | 1.0 | 1.0 | 0.00 | 0.00 | 0.00 | 46 | 1007.3 |
| 20260505224639 | 52 | 132 | 1.0 | 1.0 | 0.00 | 0.00 | 0.00 | 45 | 1007.4 |
| 20260505224138 | 53 | 216 | 1.0 | 2.0 | 0.00 | 0.00 | 0.00 | 44 | 1007.3 |
| 20260505223635 | 53 | 319 | 2.0 | 2.0 | 0.00 | 0.00 | 0.00 | 45 | 1007.3 |
| 20260505223130 | 53 | 217 | 2.0 | 2.0 | 0.00 | 0.00 | 0.00 | 45 | 1007.3 |
| 20260505222627 | 52 | 238 | 0.0 | 1.0 | 0.00 | 0.00 | 0.00 | 47 | 1007.3 |
| 20260505222123 | 53 | 155 | 1.0 | 1.0 | 0.00 | 0.00 | 0.00 | 45 | 1007.1 |
| 20260505221620 | 53 | 142 | 0.0 | 0.0 | 0.00 | 0.00 | 0.00 | 48 | 1007.4 |
| 20260505221117 | 53 | 176 | 2.0 | 3.0 | 0.00 | 0.00 | 0.00 | 47 | 1007.4 |
| 20260505220614 | 53 | 193 | 3.0 | 3.0 | 0.00 | 0.00 | 0.00 | 45 | 1007.1 |
| 20260505220112 | 53 | 108 | 1.0 | 1.0 | 0.00 | 0.00 | 0.00 | 46 | 1007.1 |
| 20260505215610 | 53 | 236 | 1.0 | 2.0 | 0.00 | 0.00 | 0.00 | 45 | 1006.9 |
| 20260505215107 | 53 | 356 | 2.0 | 2.0 | 0.00 | 0.00 | 0.00 | 46 | 1007.5 |
| 20260505214605 | 53 | 160 | 3.0 | 5.0 | 0.00 | 0.00 | 0.00 | 46 | 1007.5 |
| 20260505214102 | 53 | 95 | 2.0 | 2.0 | 0.00 | 0.00 | 0.00 | 45 | 1007.4 |
| 20260505213600 | 53 | 247 | 2.0 | 3.0 | 0.00 | 0.00 | 0.00 | 44 | 1007.3 |
| 20260505213056 | 53 | 147 | 1.0 | 1.0 | 0.00 | 0.00 | 0.00 | 46 | 1007.2 |
| 20260505212552 | 53 | 130 | 1.0 | 1.0 | 0.00 | 0.00 | 0.00 | 44 | 1007.2 |
| 20260505212050 | 54 | 119 | 2.0 | 2.0 | 0.00 | 0.00 | 0.00 | 43 | 1007.2 |
| 20260505211546 | 53 | 129 | 0.0 | 1.0 | 0.00 | 0.00 | 0.00 | 44 | 1007.2 |
| 20260505211043 | 53 | 134 | 0.0 | 1.0 | 0.00 | 0.00 | 0.00 | 43 | 1007.5 |
| 20260505210540 | 53 | 253 | 3.0 | 3.0 | 0.00 | 0.00 | 0.00 | 43 | 1007.4 |
| 20260505210037 | 54 | 19 | 1.0 | 2.0 | 0.00 | 0.00 | 0.00 | 45 | 1007.4 |
| 20260505205535 | 54 | 269 | 3.0 | 5.0 | 0.00 | 0.00 | 0.00 | 42 | 1007.5 |
| 20260505205032 | 54 | 197 | 1.0 | 1.0 | 0.00 | 0.00 | 0.00 | 44 | 1007.4 |
| 20260505204530 | 54 | 343 | 2.0 | 3.0 | 0.00 | 0.00 | 0.00 | 43 | 1007.4 |
| 20260505204027 | 55 | 310 | 4.0 | 5.0 | 0.00 | 0.00 | 0.00 | 42 | 1007.4 |
| 20260505203523 | 55 | 252 | 1.0 | 2.0 | 0.00 | 0.00 | 0.00 | 43 | 1007.6 |
| 20260505203020 | 55 | 64 | 2.0 | 2.0 | 0.00 | 0.00 | 0.00 | 42 | 1007.8 |
| 20260505202516 | 54 | 184 | 3.0 | 3.0 | 0.00 | 0.00 | 0.00 | 43 | 1007.6 |
| 20260505202012 | 54 | 37 | 2.0 | 2.0 | 0.00 | 0.00 | 0.00 | 43 | 1007.6 |
| 20260505201510 | 54 | 304 | 1.0 | 1.0 | 0.00 | 0.00 | 0.00 | 45 | 1007.5 |
| 20260505201007 | 55 | 304 | 3.0 | 5.0 | 0.00 | 0.00 | 0.00 | 43 | 1007.6 |
| 20260505200505 | 54 | 246 | 3.0 | 3.0 | 0.00 | 0.00 | 0.00 | 44 | 1007.7 |
| 20260505200001 | 55 | 116 | 5.0 | 6.0 | 0.00 | 0.00 | 0.00 | 42 | 1007.6 |
| 20260505195458 | 55 | 192 | 1.0 | 2.0 | 0.00 | 0.00 | 0.00 | 45 | 1007.6 |
| 20260505194955 | 55 | 132 | 0.0 | 0.0 | 0.00 | 0.00 | 0.00 | 45 | 1007.5 |
| 20260505194452 | 55 | 145 | 1.0 | 1.0 | 0.00 | 0.00 | 0.00 | 43 | 1007.7 |
| 20260505193952 | 56 | 181 | 4.0 | 7.0 | 0.00 | 0.00 | 0.00 | 40 | 1007.6 |
| 20260505193450 | 56 | 110 | 2.0 | 3.0 | 0.00 | 0.00 | 0.00 | 40 | 1007.5 |
| 20260505192947 | 56 | 227 | 6.0 | 7.0 | 0.00 | 0.00 | 0.00 | 40 | 1007.6 |
| 20260505192446 | 56 | 163 | 1.0 | 2.0 | 0.00 | 0.00 | 0.00 | 42 | 1007.5 |
| 20260505191943 | 56 | 344 | 5.0 | 7.0 | 0.00 | 0.00 | 0.00 | 41 | 1007.5 |
| 20260505191442 | 56 | 168 | 2.0 | 2.0 | 0.00 | 0.00 | 0.00 | 42 | 1007.4 |
| 20260505190938 | 55 | 261 | 2.0 | 3.0 | 0.00 | 0.00 | 0.00 | 42 | 1007.4 |
| 20260505190433 | 55 | 135 | 0.0 | 1.0 | 0.00 | 0.00 | 0.00 | 41 | 1007.2 |
| 20260505185929 | 56 | 253 | 4.0 | 5.0 | 0.00 | 0.00 | 0.00 | 40 | 1007.1 |
| 20260505185427 | 55 | 61 | 3.0 | 5.0 | 0.00 | 0.00 | 0.00 | 41 | 1007.1 |
| 20260505184923 | 55 | 147 | 5.0 | 8.0 | 0.00 | 0.00 | 0.00 | 40 | 1007.0 |
| 20260505184420 | 55 | 274 | 2.0 | 2.0 | 0.00 | 0.00 | 0.00 | 40 | 1007.4 |
| 20260505183916 | 56 | 147 | 1.0 | 2.0 | 0.00 | 0.00 | 0.00 | 41 | 1007.1 |
| 20260505183414 | 55 | 260 | 3.0 | 5.0 | 0.00 | 0.00 | 0.00 | 40 | 1007.1 |
| 20260505182910 | 56 | 250 | 3.0 | 5.0 | 0.00 | 0.00 | 0.00 | 37 | 1006.8 |
| 20260505182407 | 56 | 336 | 2.0 | 2.0 | 0.00 | 0.00 | 0.00 | 40 | 1006.9 |
| 20260505181903 | 56 | 133 | 2.0 | 3.0 | 0.00 | 0.00 | 0.00 | 39 | 1006.5 |
| 20260505181401 | 56 | 239 | 1.0 | 1.0 | 0.00 | 0.00 | 0.00 | 39 | 1006.9 |
| 20260505180857 | 57 | 209 | 0.0 | 1.0 | 0.00 | 0.00 | 0.00 | 38 | 1006.9 |
| 20260505180354 | 57 | 123 | 2.0 | 2.0 | 0.00 | 0.00 | 0.00 | 40 | 1006.9 |
| 20260505175850 | 56 | 252 | 0.0 | 1.0 | 0.00 | 0.00 | 0.00 | 39 | 1007.1 |
| 20260505175347 | 57 | 158 | 2.0 | 3.0 | 0.00 | 0.00 | 0.00 | 36 | 1006.8 |
| 20260505174843 | 58 | 133 | 0.0 | 1.0 | 0.00 | 0.00 | 0.00 | 40 | 1006.3 |
| 20260505174341 | 56 | 119 | 3.0 | 6.0 | 0.00 | 0.00 | 0.00 | 38 | 1006.4 |
| 20260505173836 | 57 | 309 | 3.0 | 5.0 | 0.00 | 0.00 | 0.00 | 37 | 1006.4 |
| 20260505173333 | 57 | 22 | 2.0 | 3.0 | 0.00 | 0.00 | 0.00 | 37 | 1006.7 |
| 20260505172830 | 57 | 250 | 5.0 | 7.0 | 0.00 | 0.00 | 0.00 | 36 | 1006.5 |
| 20260505172328 | 57 | 120 | 1.0 | 2.0 | 0.00 | 0.00 | 0.00 | 37 | 1006.4 |
| 20260505171827 | 57 | 284 | 2.0 | 3.0 | 0.00 | 0.00 | 0.00 | 36 | 1006.4 |
| 20260505171325 | 55 | 88 | 2.0 | 3.0 | 0.00 | 0.00 | 0.00 | 39 | 1006.3 |
| 20260505170821 | 56 | 155 | 3.0 | 3.0 | 0.00 | 0.00 | 0.00 | 35 | 1006.4 |
| 20260505170318 | 55 | 107 | 2.0 | 3.0 | 0.00 | 0.00 | 0.00 | 35 | 1005.9 |
| 20260505165813 | 56 | 285 | 2.0 | 3.0 | 0.00 | 0.00 | 0.00 | 37 | 1006.0 |
| 20260505165309 | 57 | 255 | 2.0 | 3.0 | 0.00 | 0.00 | 0.00 | 37 | 1006.2 |
| 20260505164805 | 56 | 173 | 2.0 | 3.0 | 0.00 | 0.00 | 0.00 | 35 | 1006.2 |
| 20260505164303 | 55 | 6 | 1.0 | 2.0 | 0.00 | 0.00 | 0.00 | 37 | 1006.0 |
| 20260505163801 | 55 | 11 | 2.0 | 3.0 | 0.00 | 0.00 | 0.00 | 38 | 1006.2 |
| 20260505163259 | 55 | 226 | 4.0 | 6.0 | 0.00 | 0.00 | 0.00 | 36 | 1005.9 |
| 20260505162756 | 55 | 125 | 3.0 | 3.0 | 0.00 | 0.00 | 0.00 | 36 | 1006.3 |
| 20260505162253 | 55 | 222 | 3.0 | 3.0 | 0.00 | 0.00 | 0.00 | 36 | 1006.3 |
| 20260505161750 | 55 | 132 | 0.0 | 1.0 | 0.00 | 0.00 | 0.00 | 43 | 1006.0 |
| 20260505161247 | 55 | 193 | 2.0 | 3.0 | 0.00 | 0.00 | 0.00 | 37 | 1006.2 |
| 20260505160744 | 57 | 245 | 3.0 | 3.0 | 0.00 | 0.00 | 0.00 | 38 | 1006.2 |
| 20260505160242 | 56 | 132 | 0.0 | 1.0 | 0.00 | 0.00 | 0.00 | 40 | 1006.4 |
| 20260505153221 | 55 | 94 | 1.0 | 2.0 | 0.00 | 0.00 | 0.00 | 42 | 1006.4 |
| 20260505152718 | 53 | 88 | 1.0 | 1.0 | 0.00 | 0.00 | 0.00 | 45 | 1006.6 |
| 20260505152214 | 53 | 84 | 1.0 | 1.0 | 0.00 | 0.00 | 0.00 | 44 | 1006.5 |
| 20260505151709 | 53 | 126 | 0.0 | 1.0 | 0.00 | 0.00 | 0.00 | 48 | 1006.7 |
| 20260505151207 | 53 | 146 | 0.0 | 1.0 | 0.00 | 0.00 | 0.00 | 49 | 1006.7 |
| 20260505150703 | 52 | 170 | 1.0 | 3.0 | 0.00 | 0.00 | 0.00 | 53 | 1006.7 |
| 20260505150201 | 52 | 132 | 1.0 | 1.0 | 0.00 | 0.00 | 0.00 | 56 | 1006.8 |
| 20260505140633 | 50 | 281 | 1.0 | 2.0 | 0.00 | 0.00 | 0.00 | 68 | 1006.4 |
| 20260505140131 | 50 | 315 | 1.0 | 2.0 | 0.00 | 0.00 | 0.00 | 68 | 1005.8 |
| 20260505124544 | 49 | 145 | 0.0 | 0.0 | 0.00 | 0.00 | 0.00 | 78 | 1005.2 |
| 20260505124040 | 49 | 198 | 2.0 | 2.0 | 0.00 | 0.00 | 0.00 | 77 | 1005.1 |
| 20260505123537 | 49 | 127 | 0.0 | 1.0 | 0.00 | 0.00 | 0.00 | 77 | 1004.5 |
| 20260505123033 | 50 | 127 | 3.0 | 3.0 | 0.00 | 0.00 | 0.00 | 75 | 1005.0 |
| 20260505122530 | 51 | 193 | 1.0 | 2.0 | 0.00 | 0.00 | 0.00 | 74 | 1004.5 |
| 20260505122027 | 50 | 156 | 0.0 | 1.0 | 0.00 | 0.00 | 0.00 | 74 | 1004.6 |
| 20260505121523 | 50 | 184 | 1.0 | 1.0 | 0.00 | 0.00 | 0.00 | 75 | 1004.2 |
| 20260505121020 | 50 | 136 | 1.0 | 1.0 | 0.00 | 0.00 | 0.00 | 74 | 1004.0 |
| 20260505120516 | 50 | 132 | 0.0 | 0.0 | 0.00 | 0.00 | 0.00 | 75 | 1004.0 |
| 20260505120012 | 50 | 120 | 0.0 | 0.0 | 0.00 | 0.00 | 0.00 | 75 | 1003.5 |
| 20260505115507 | 50 | 291 | 1.0 | 2.0 | 0.00 | 0.00 | 0.00 | 74 | 1003.8 |
| 20260505115005 | 50 | 128 | 1.0 | 1.0 | 0.00 | 0.00 | 0.00 | 74 | 1004.0 |
| 20260505114501 | 50 | 287 | 1.0 | 2.0 | 0.00 | 0.00 | 0.00 | 75 | 1003.9 |
| 20260505113958 | 50 | 194 | 1.0 | 1.0 | 0.00 | 0.00 | 0.00 | 75 | 1003.8 |
| 20260505113454 | 49 | 135 | 1.0 | 1.0 | 0.00 | 0.00 | 0.00 | 75 | 1003.7 |
| 20260505112950 | 49 | 147 | 0.0 | 0.0 | 0.00 | 0.00 | 0.00 | 76 | 1003.7 |
| 20260505112447 | 49 | 136 | 1.0 | 1.0 | 0.00 | 0.00 | 0.00 | 76 | 1003.7 |
| 20260505111944 | 49 | 126 | 0.0 | 0.0 | 0.00 | 0.00 | 0.00 | 77 | 1003.3 |
| 20260505111438 | 49 | 119 | 2.0 | 2.0 | 0.00 | 0.00 | 0.00 | 77 | 1003.0 |
| 20260505110935 | 48 | 210 | 0.0 | 1.0 | 0.00 | 0.00 | 0.00 | 77 | 1003.3 |
| 20260505110432 | 48 | 96 | 0.0 | 1.0 | 0.00 | 0.00 | 0.00 | 77 | 1003.4 |
| 20260505101903 | 49 | 142 | 0.0 | 0.0 | 0.00 | 0.00 | 0.00 | 74 | 1002.2 |
| 20260505101357 | 49 | 135 | 0.0 | 0.0 | 0.00 | 0.00 | 0.00 | 73 | 1002.1 |
| 20260505100854 | 50 | 260 | 0.0 | 1.0 | 0.00 | 0.00 | 0.00 | 71 | 1002.1 |
| 20260505100350 | 50 | 171 | 1.0 | 1.0 | 0.00 | 0.00 | 0.00 | 71 | 1002.2 |
| 20260505095846 | 50 | 197 | 1.0 | 1.0 | 0.00 | 0.00 | 0.00 | 70 | 1002.1 |
| 20260505095344 | 51 | 305 | 2.0 | 2.0 | 0.00 | 0.00 | 0.00 | 69 | 1002.0 |
| 20260505094839 | 51 | 147 | 0.0 | 1.0 | 0.00 | 0.00 | 0.00 | 69 | 1001.5 |
| 20260505094337 | 51 | 192 | 0.0 | 0.0 | 0.00 | 0.00 | 0.00 | 70 | 1001.4 |
| 20260505093832 | 51 | 167 | 2.0 | 2.0 | 0.00 | 0.00 | 0.00 | 69 | 1001.3 |
| 20260505093330 | 51 | 213 | 1.0 | 1.0 | 0.00 | 0.00 | 0.00 | 69 | 1001.3 |
| 20260505092827 | 51 | 173 | 0.0 | 0.0 | 0.00 | 0.00 | 0.00 | 69 | 1001.0 |
| 20260505092325 | 51 | 157 | 0.0 | 0.0 | 0.00 | 0.00 | 0.00 | 71 | 1001.1 |
| 20260505091822 | 51 | 222 | 1.0 | 1.0 | 0.00 | 0.00 | 0.00 | 70 | 1001.3 |
| 20260505091320 | 51 | 166 | 0.0 | 0.0 | 0.00 | 0.00 | 0.00 | 73 | 1001.0 |
| 20260505090818 | 51 | 134 | 0.0 | 0.0 | 0.00 | 0.00 | 0.00 | 72 | 1001.2 |
| 20260505090316 | 51 | 160 | 1.0 | 1.0 | 0.00 | 0.00 | 0.00 | 73 | 1001.0 |
| 20260505085812 | 51 | 152 | 1.0 | 1.0 | 0.00 | 0.00 | 0.00 | 72 | 1000.5 |
| 20260505085310 | 52 | 139 | 0.0 | 0.0 | 0.00 | 0.00 | 0.00 | 73 | 1000.2 |
| 20260505084808 | 52 | 230 | 1.0 | 2.0 | 0.00 | 0.00 | 0.00 | 72 | 1000.6 |
| 20260505084306 | 52 | 151 | 1.0 | 1.0 | 0.00 | 0.00 | 0.00 | 73 | 1000.5 |
| 20260505083803 | 52 | 137 | 0.0 | 0.0 | 0.00 | 0.00 | 0.00 | 74 | 1000.4 |
| 20260505083300 | 52 | 168 | 0.0 | 0.0 | 0.00 | 0.00 | 0.00 | 74 | 1000.5 |
| 20260505082756 | 52 | 168 | 0.0 | 1.0 | 0.00 | 0.00 | 0.00 | 75 | 1000.3 |
| 20260505082253 | 52 | 167 | 1.0 | 1.0 | 0.00 | 0.00 | 0.00 | 75 | 1000.2 |
| 20260505081749 | 52 | 128 | 0.0 | 0.0 | 0.00 | 0.00 | 0.00 | 76 | 1000.1 |
| 20260505081247 | 52 | 159 | 0.0 | 0.0 | 0.00 | 0.00 | 0.00 | 77 | 999.8 |
| 20260505080743 | 51 | 144 | 0.0 | 0.0 | 0.00 | 0.00 | 0.00 | 78 | 999.9 |
| 20260505080239 | 52 | 140 | 0.0 | 0.0 | 0.00 | 0.00 | 0.00 | 78 | 999.9 |
| 20260505075735 | 52 | 142 | 1.0 | 1.0 | 0.00 | 0.00 | 0.00 | 78 | 1000.1 |
| 20260505075232 | 52 | 133 | 0.0 | 1.0 | 0.00 | 0.00 | 0.00 | 78 | 999.8 |
| 20260505074729 | 52 | 212 | 1.0 | 1.0 | 0.00 | 0.00 | 0.00 | 77 | 1000.0 |
| 20260505074227 | 53 | 222 | 1.0 | 2.0 | 0.00 | 0.00 | 0.00 | 78 | 999.8 |
| 20260505073724 | 53 | 148 | 0.0 | 0.0 | 0.00 | 0.00 | 0.00 | 80 | 999.6 |
| 20260505073222 | 53 | 157 | 1.0 | 1.0 | 0.00 | 0.00 | 0.00 | 80 | 999.9 |
| 20260505072718 | 53 | 128 | 1.0 | 2.0 | 0.00 | 0.00 | 0.00 | 80 | 999.8 |
| 20260505072214 | 53 | 152 | 1.0 | 1.0 | 0.00 | 0.00 | 0.00 | 81 | 1000.0 |
| 20260505071709 | 53 | 194 | 1.0 | 1.0 | 0.00 | 0.00 | 0.00 | 82 | 999.8 |
| 20260505071207 | 53 | 232 | 2.0 | 2.0 | 0.00 | 0.00 | 0.00 | 83 | 999.6 |
| 20260505070705 | 53 | 155 | 0.0 | 0.0 | 0.00 | 0.00 | 0.00 | 83 | 999.9 |
| 20260505070201 | 54 | 194 | 0.0 | 1.0 | 0.00 | 0.00 | 0.00 | 83 | 999.9 |
| 20260505065656 | 54 | 208 | 1.0 | 1.0 | 0.00 | 0.00 | 0.00 | 83 | 999.8 |
| 20260505065154 | 54 | 134 | 0.0 | 0.0 | 0.00 | 0.00 | 0.00 | 83 | 999.2 |
| 20260505064651 | 54 | 135 | 0.0 | 0.0 | 0.00 | 0.00 | 0.00 | 83 | 999.4 |
| 20260505064149 | 55 | 180 | 1.0 | 1.0 | 0.00 | 0.00 | 0.00 | 83 | 999.7 |
| 20260505063646 | 55 | 165 | 1.0 | 2.0 | 0.00 | 0.00 | 0.00 | 83 | 999.3 |
| 20260505063142 | 55 | 142 | 0.0 | 0.0 | 0.00 | 0.00 | 0.00 | 85 | 999.3 |
| 20260505062638 | 55 | 137 | 0.0 | 1.0 | 0.00 | 0.00 | 0.00 | 85 | 999.1 |
| 20260505062136 | 56 | 216 | 3.0 | 5.0 | 0.00 | 0.00 | 0.00 | 85 | 999.1 |
| 20260505061633 | 56 | 173 | 1.0 | 1.0 | 0.00 | 0.00 | 0.00 | 86 | 999.2 |
| 20260505061131 | 56 | 179 | 0.0 | 1.0 | 0.00 | 0.00 | 0.00 | 86 | 999.5 |
| 20260505060628 | 56 | 211 | 2.0 | 2.0 | 0.00 | 0.00 | 0.00 | 86 | 999.4 |
| 20260505060125 | 56 | 248 | 1.0 | 2.0 | 0.00 | 0.00 | 0.00 | 87 | 999.2 |
| 20260505055620 | 56 | 211 | 0.0 | 0.0 | 0.00 | 0.00 | 0.00 | 87 | 999.3 |
| 20260505055117 | 57 | 138 | 1.0 | 1.0 | 0.00 | 0.00 | 0.00 | 86 | 999.3 |
| 20260505054614 | 57 | 212 | 3.0 | 3.0 | 0.00 | 0.00 | 0.00 | 86 | 999.1 |
| 20260505054112 | 57 | 157 | 0.0 | 0.0 | 0.00 | 0.00 | 0.00 | 86 | 999.2 |
| 20260505053609 | 57 | 190 | 0.0 | 1.0 | 0.00 | 0.00 | 0.00 | 86 | 998.9 |
| 20260505053105 | 57 | 224 | 3.0 | 3.0 | 0.00 | 0.00 | 0.00 | 85 | 998.7 |
| 20260505052603 | 57 | 133 | 0.0 | 0.0 | 0.00 | 0.00 | 0.00 | 86 | 998.6 |
| 20260505052100 | 58 | 210 | 3.0 | 3.0 | 0.00 | 0.00 | 0.00 | 85 | 998.8 |
| 20260505051557 | 58 | 242 | 2.0 | 2.0 | 0.00 | 0.00 | 0.00 | 85 | 999.0 |
| 20260505051055 | 58 | 171 | 0.0 | 1.0 | 0.00 | 0.00 | 0.00 | 84 | 998.6 |
| 20260505050553 | 58 | 292 | 1.0 | 2.0 | 0.00 | 0.00 | 0.00 | 84 | 998.8 |
| 20260505041520 | 61 | 191 | 1.0 | 1.0 | 0.00 | 0.00 | 0.00 | 81 | 998.2 |
| 20260505041018 | 61 | 212 | 0.0 | 1.0 | 0.00 | 0.00 | 0.00 | 81 | 998.1 |
| 20260505040515 | 61 | 163 | 1.0 | 2.0 | 0.00 | 0.00 | 0.00 | 80 | 998.3 |
| 20260505040012 | 61 | 132 | 1.0 | 1.0 | 0.00 | 0.10 | 0.10 | 81 | 998.4 |
| 20260505035508 | 61 | 143 | 1.0 | 1.0 | 0.00 | 0.10 | 0.10 | 81 | 998.2 |
| 20260505035005 | 61 | 130 | 0.0 | 0.0 | 0.00 | 0.10 | 0.10 | 80 | 998.4 |
| 20260505034501 | 61 | 131 | 1.0 | 2.0 | 0.00 | 0.10 | 0.10 | 80 | 998.0 |
| 20260505033959 | 62 | 124 | 0.0 | 0.0 | 0.00 | 0.10 | 0.10 | 80 | 998.0 |
| 20260505033455 | 62 | 161 | 0.0 | 1.0 | 0.00 | 0.10 | 0.10 | 80 | 997.8 |
| 20260505032954 | 61 | 121 | 0.0 | 1.0 | 0.00 | 0.10 | 0.10 | 81 | 997.8 |
| 20260505032451 | 61 | 209 | 0.0 | 1.0 | 0.00 | 0.10 | 0.10 | 82 | 997.7 |
| 20260505031947 | 61 | 130 | 0.0 | 0.0 | 0.00 | 0.10 | 0.10 | 83 | 997.8 |
| 20260505031444 | 61 | 134 | 0.0 | 0.0 | 0.00 | 0.10 | 0.10 | 82 | 997.9 |
| 20260505030941 | 61 | 302 | 1.0 | 2.0 | 0.00 | 0.10 | 0.10 | 82 | 997.7 |
| 20260505030437 | 61 | 196 | 2.0 | 3.0 | 0.00 | 0.10 | 0.10 | 80 | 997.4 |
| 20260505025932 | 61 | 188 | 2.0 | 2.0 | 0.00 | 0.10 | 0.10 | 82 | 996.9 |
| 20260505025430 | 61 | 245 | 1.0 | 1.0 | 0.00 | 0.10 | 0.10 | 83 | 996.6 |
| 20260505024928 | 61 | 163 | 0.0 | 1.0 | 0.00 | 0.10 | 0.10 | 83 | 996.8 |
| 20260505024425 | 60 | 147 | 5.0 | 6.0 | 0.00 | 0.10 | 0.10 | 84 | 996.6 |
| 20260505023922 | 60 | 197 | 2.0 | 2.0 | 0.00 | 0.10 | 0.10 | 87 | 996.5 |
| 20260505023419 | 60 | 130 | 1.0 | 1.0 | 0.00 | 0.10 | 0.10 | 87 | 996.7 |
| 20260505022917 | 61 | 114 | 0.0 | 1.0 | 0.00 | 0.10 | 0.10 | 86 | 996.9 |
| 20260505022414 | 61 | 146 | 3.0 | 5.0 | 0.00 | 0.10 | 0.10 | 86 | 997.0 |
| 20260505021911 | 61 | 158 | 0.0 | 1.0 | 0.00 | 0.10 | 0.10 | 89 | 997.1 |
| 20260505021407 | 61 | 239 | 0.0 | 1.0 | 0.00 | 0.10 | 0.10 | 88 | 997.4 |
| 20260505020903 | 62 | 150 | 1.0 | 2.0 | 0.59 | 0.10 | 0.10 | 87 | 997.0 |
| 20260505020359 | 63 | 240 | 7.0 | 9.0 | 0.59 | 0.10 | 0.10 | 84 | 996.9 |
| 20260505015856 | 69 | 123 | 5.0 | 6.0 | 0.12 | 0.02 | 0.02 | 72 | 997.0 |
| 20260505015353 | 69 | 246 | 9.0 | 13.0 | 0.00 | 0.00 | 0.00 | 62 | 997.0 |